Starlink 34536

operational
NORAD ID: 64748 Int'l Des: 2025-144 Owner: SPXS Country: US Constellation: starlink
LEOCIRCULAR

About Starlink 34536

Description loading...

Live Position

Loading 3D Globe...

Upcoming Passes

Altitude History

Altitude vs Time

uPlot chart will show altitude changes over time

Two-Line Element Set

1 64748U 25144AA 25350.82402778 .00010641 00000-0 37066-3 0 9995
2 64748 53.1565 206.0146 0001238 74.9050 285.2087 15.30219347 27022
Epoch: Dec 16, 2025 • Age: 12 hours

Current Status

Altitude 476.6 km
Velocity 7.63 km/s
Sub-Earth Point 30.95°N, 160.67°E
Launch Date Jul 2, 2025
Age 0.4 years
Type internet

Technical Details

Classification Payload
Mass 575.00 kg
Dry Mass 530.00 kg
Total Mass 575.00 kg
Length 0.30 m
Diameter 4.10 m
Span 29.00 m
Shape Box + pan
Manufacturer SPXS
Bus Type Starlink V2MO
Phase Status In Orbit
Owner/State SPXS/US

Large Constellations

Loading constellations...